Regional Weather Roundup
Issued by NWS

Home | Current Version | Previous Version | Graphics & Text | Print | Product List | Glossary On
Versions: 1 2 3 4 5 6 7 8 9 10 11 12 13 14 15 16 17 18 19 20 21 22 23 24 25 26 27 28 29 30 31 32 33 34 35 36 37 38 39 40 41 42 43 44 45 46 47 48 49 50
000
ASUS43 KOAX 270202
RWRNE

WEATHER ROUNDUP FOR NEBRASKA
NATIONAL WEATHER SERVICE OMAHA NE
900 PM CDT SUN APR 26 2015

NOTES: SATELLITE DATA IS BEING USED TO AUGMENT CLOUD COVER ABOVE
       12000 FEET.
       "FAIR" INDICATES FEW OR NO CLOUDS BELOW 12,000 FEET WITH NO
       SIGNIFICANT WEATHER AND/OR OBSTRUCTIONS TO VISIBILITY.

  * THESE STATIONS DO NOT REPORT WEATHER SUCH AS RAIN...SNOW OR FOG.

NEZ001>004-019>022-054>056-270300-
NEBRASKA PANHANDLE

CITY           SKY/WX    TMP DP  RH WIND       PRES   REMARKS
SCOTTSBLUFF    CLOUDY    45  32  60 SE12      30.06R
ALLIANCE       CLOUDY    45  39  79 SE3       30.06R
CHADRON        CLOUDY    50  40  68 SE13      30.06R
KIMBALL        LGT RAIN  40  40  99 E12       30.03R VSB 1/2 WCI  33
SIDNEY         CLOUDY    41  40  96 E12       30.06R FOG
$$

NEZ057>060-069>072-079>082-270300-
SOUTHWEST NEBRASKA

CITY           SKY/WX    TMP DP  RH WIND       PRES   REMARKS
IMPERIAL       CLOUDY    47  43  86 NE9       30.03R
MCCOOK         CLOUDY    52  43  71 NE10      30.01R
$$

NEZ005>010-023>029-035>040-094-270300-
NORTH CENTRAL NEBRASKA

CITY           SKY/WX    TMP DP  RH WIND       PRES   REMARKS
VALENTINE      PTCLDY    51  33  50 E7        30.06R
AINSWORTH      PTCLDY    50  29  44 E6        30.06R
BROKEN BOW     PTCLDY    48  38  68 E5        30.03R
ORD            CLEAR     50  36  58 E3        30.03R
$$

NEZ041-046>049-061>064-073>077-083>087-270300-
SOUTH CENTRAL NEBRASKA

CITY           SKY/WX    TMP DP  RH WIND       PRES   REMARKS
GRAND ISLAND   PTCLDY    48  39  71 E6        30.04R
AURORA         CLEAR     49  43  80 E7        30.03R
HASTINGS       CLEAR     50  42  74 E6        30.02R
KEARNEY *      CLOUDY    52  43  71 NE7       30.04R
YORK           CLEAR     50  39  66 E7        30.03R
$$

NEZ011>018-030>034-042>045-270300-
NORTHEAST NEBRASKA

CITY           SKY/WX    TMP DP  RH WIND       PRES   REMARKS
NORFOLK        CLEAR     53  33  46 E3        30.04R
BLAIR          CLEAR     54  33  46 NE7       30.03R
COLUMBUS *     CLEAR     50  36  57 E5        30.05R
TEKAMAH        CLEAR     54  35  48 E6        30.03S
$$

NEZ050>053-065>068-078-088>093-270300-
SOUTHEAST NEBRASKA

CITY           SKY/WX    TMP DP  RH WIND       PRES   REMARKS
LINCOLN        CLEAR     51  36  56 NE7       30.03R
OMAHA EPPLEY   PTCLDY    57  34  41 NE8       30.03R
FALLS CITY     CLEAR     54  35  48 NE8       30.01R
NEBRASKA CITY  CLEAR     52  31  45 NE6       30.01R
PLATTSMOUTH    CLEAR     52  33  47 NE8       30.02R
$$

NEZ044-045-051>053-067-270300-
OMAHA AREA

CITY           SKY/WX    TMP DP  RH WIND       PRES   REMARKS
OMAHA EPPLEY   PTCLDY    57  34  41 NE8       30.03R
BLAIR          CLEAR     54  33  46 NE7       30.03R
OFFUTT AFB     CLEAR     52  36  54 NE5       30.02R
PLATTSMOUTH    CLEAR     52  33  47 NE8       30.02R
WAHOO          FAIR      53  36  52 NE6       30.02S
$$



USA.gov is the U.S. government's official web portal to all federal, state and local government web resources and services.